Regional Weather Roundup
Issued by NWS Burlington, VT

Current Version | Previous Version | Text Only | Print | Product List | Glossary On
Versions: 1 2 3 4 5 6 7 8 9 10 11 12 13 14 15 16 17 18 19 20 21 22 23 24 25 26 27 28 29 30 31 32 33 34 35 36 37 38 39 40 41 42 43 44 45 46 47 48 49 50
000
ASUS41 KBTV 112230
RWRBTV
VERMONT REGIONAL WEATHER ROUNDUP
NATIONAL WEATHER SERVICE BURLINGTON VT
500 PM EST TUE DEC 11 2018

NOTE: "FAIR" INDICATES FEW OR NO CLOUDS BELOW 12,000 FEET WITH NO
SIGNIFICANT WEATHER AND/OR OBSTRUCTIONS TO VISIBILITY.

* THESE REPORTS ARE NOT UNDER NWS QUALITY CONTROL AND/OR DO NOT
  REPORT WEATHER SUCH AS PRECIPITATION AND FOG.

VTZ001>019-112300-
_____VERMONT_____


CITY           SKY/WX    TMP DP  RH WIND       PRES   REMARKS
BURLINGTON     MOCLDY    29  17  61 S5        29.96R WCI  24
MONTPELIER     FAIR      16  11  80 CALM      29.95S
MORRISVILLE    CLOUDY    14  12  92 CALM      29.96R
ST. JOHNSBURY*   N/A     19  11  70 MISG      29.94F
LYNDONVILLE*   FAIR      17   8  69 CALM        N/A
MIDDLEBURY*    FAIR      25  15  66 CALM      29.96S
RUTLAND*       MOCLDY    23  16  74 CALM      29.96F
SPRINGFIELD    CLOUDY    28  16  60 CALM      29.96F
HIGHGATE*      CLOUDY    26  18  70 CALM      29.97R
NEWPORT*       CLOUDY    18  12  76 CALM      29.95S
BENNINGTON     CLOUDY    28  16  60 CALM      29.95F
ISLAND POND*     N/A     12 N/A N/A CALM        N/A
GALLUP MILLS*    N/A     14 N/A N/A MISG        N/A
LAKE EDEN*       N/A     14 N/A N/A CALM        N/A
MT. MANSFIELD*   N/A     18 N/A N/A S5          N/A  WCI  11

_____LAKE CHAMPLAIN_____


CITY           SKY/WX    TMP DP  RH WIND       PRES   REMARKS
BURTON ISLAND*   N/A     32  23  69 SE8         N/A  WCI  25
COLCHESTER RF*   N/A     32  23  69 SW17        N/A  WCI  21
DIAMOND ISL*     N/A     32  21  64 S8          N/A  WCI  25

$$

NYZ007-026>031-035-052-083-087-112300-
_____NORTHERN NEW YORK_____


CITY           SKY/WX    TMP DP  RH WIND       PRES   REMARKS
PLATTSBURGH    CLOUDY    29  20  69 CALM      29.96R
SARANAC LAKE   LGT SNOW  21  19  92 SW3       29.86F FOG
MASSENA        LGT SNOW  25  24  96 CALM      29.96S FOG
OGDENSBURG*    LGT SNOW  29  27  94 S3        29.95R
POTSDAM*       LGT SNOW  27  25  93 S5        29.94S WCI  21
WATERTOWN      LGT SNOW  28  26  92 S8        29.94S FOG     WCI  20
FT DRUM        LGT SNOW  27  23  86 S8        29.91S WCI  18
ALBANY         CLOUDY    29  17  61 NW7       29.99F WCI  22
GLENS FALLS    CLOUDY    27  17  66 S6        29.98F WCI  20

$$
NHZ002-005-011-112300-
_____NEW HAMPSHIRE_____


CITY           SKY/WX    TMP DP  RH WIND       PRES   REMARKS
LEBANON        CLOUDY    25  14  63 CALM      29.96F
KEENE          CLOUDY    26  17  68 NE3       29.96F
MT WASHINGTON  PTCLDY     7  -2  66 W15         N/A  WCI -11
PLYMOUTH       FAIR      18  14  85 CALM      29.96S
WHITEFIELD     CLOUDY    17  10  74 CALM      29.93S

$$

_____REGIONAL QUEBEC LOCATIONS_____


CITY           SKY/WX    TMP DP  RH WIND       PRES   REMARKS
MONTREAL       LGT SNOW  19  16  86 N9        29.98S WCI   9
QUEBEC CITY    FLURRIES  14  10  85 VRB2      30.01F
SHERBROOKE     MOCLDY    16  10  79 CALM      29.96R

_____REGIONAL ONTARIO LOCATIONS_____


CITY           SKY/WX    TMP DP  RH WIND       PRES   REMARKS
OTTAWA         FLURRIES  19  16  86 NE8       29.95R WCI   9

______KEY______
VSB  - VISIBILITY IN MILES
WCI  - WIND CHILL INDEX
HX   - HEAT INDEX
$$
NNNN




USA.gov is the U.S. government's official web portal to all federal, state and local government web resources and services.